Volver al catálogo

STARLINK-3179

ActivoComunicacionesVLEO
NORAD 51141·PAYLOAD·🇺🇸 United States

Lanzado Jan 19, 2022 desde Cape Canaveral Space Force Station

Loading…

Próximos Pases (próximas 24 horas)

TLE

ActualizadoSource: CelesTrak SupGP

Época: Sep 15, 2026, 02:16 UTC

1 51141C 22005AP  26258.09493056  .00024852  00000+0  73425-3 0  2582
2 51141  53.1571 154.7265 0001340  85.5062  68.1975 15.34378353    19

Sigue STARLINK-3179 en tiempo real con AllMySat

Download on the App Store